Weather History for Greenville, MS

Change the Weather History Date:

Monday, February 4, 2013

  Actual Average Record
Temperature  
Mean Temperature 50 °F 44 °F  
Max Temperature 59 °F 54 °F 76 °F (2008)
Min Temperature 40 °F 34 °F 8 °F (1996)
Degree Days  
Heating Degree Days 15 21  
Month to date heating degree days 81 87  
Since 1 July heating degree days 1597 1876  
Cooling Degree Days 0 0  
Month to date cooling degree days 0 0  
Year to date cooling degree days 10 1  
Moisture  
Dew Point 39 °F    
Average Humidity 64    
Maximum Humidity 80    
Minimum Humidity 47    
Precipitation  
Precipitation 0.03 in 0.22 in 2.50 in (1956)
Month to date precipitation 0.03 0.87  
Year to date precipitation 9.14 5.84  
Sea Level Pressure  
Sea Level Pressure 30.03 in    
Wind  
Wind Speed 8 mph (SSE)    
Max Wind Speed 16 mph    
Max Gust Speed 23 mph    
Visibility 10 miles    
Events Rain    
T = Trace of Precipitation, MM = Missing Value Source: NWS Daily Summary

Daily Weather History Graph

Daily Weather History Graph

Search for Another Location

Airport:

Trip Planner

Search our weather history database for the weather conditions in past years. The results will help you decide how hot, cold, wet, or windy it might be!

Date:

Astronomy

Feb. 04, 2013 Rise Set
Actual Time 6:57 AM CST 5:38 PM CST
Civil Twilight 6:31 AM CST 6:04 PM CST
Nautical Twilight 6:02 AM CST 6:34 PM CST
Astronomical Twilight 5:32 AM CST 7:03 PM CST
Moon 1:30 AM CST (2/4) 12:06 PM CST (2/4)
Length of Visible Light 11h 32m
Length of Day
10h 40m
Last Quarter, 37% of the Moon is Illuminated
Feb 4
Last Quarter
Feb 10
New
Feb 17
First Quarter
Feb 25
Full
Mar 4
Last Quarter

Hourly Weather History & Observations

Time (CST) Temp. Windchill Dew Point Humidity Pressure Visibility Wind Dir Wind Speed Gust Speed Precip Events Conditions
12:53 AM 42.1 °F 38.4 °F 34.0 °F 73% 30.14 in 10.0 mi ESE 5.8 mph - N/A   Clear
1:53 AM 44.1 °F 39.0 °F 33.1 °F 65% 30.11 in 10.0 mi East 9.2 mph - N/A   Clear
2:53 AM 42.1 °F 38.4 °F 33.1 °F 70% 30.10 in 10.0 mi ESE 5.8 mph - N/A   Clear
4:53 AM 41.0 °F 38.0 °F 35.1 °F 79% 30.08 in 10.0 mi ESE 4.6 mph - N/A   Clear
5:53 AM 43.0 °F 38.8 °F 33.1 °F 68% 30.09 in 10.0 mi SSE 6.9 mph - N/A   Clear
6:53 AM 44.1 °F 39.5 °F 33.1 °F 65% 30.09 in 10.0 mi SSE 8.1 mph - N/A   Clear
7:53 AM 45.0 °F 38.9 °F 33.1 °F 63% 30.08 in 10.0 mi South 12.7 mph - N/A   Clear
8:53 AM 46.9 °F - 33.1 °F 59% 30.08 in 10.0 mi SSE 15.0 mph - N/A   Clear
9:53 AM 48.9 °F - 35.1 °F 59% 30.08 in 10.0 mi South 12.7 mph - N/A   Clear
10:53 AM 51.1 °F - 36.0 °F 56% 30.07 in 10.0 mi South 13.8 mph - N/A   Scattered Clouds
11:53 AM 53.1 °F - 37.0 °F 55% 30.05 in 10.0 mi South 11.5 mph - N/A   Mostly Cloudy
12:53 PM 54.0 °F - 37.0 °F 53% 30.03 in 10.0 mi South 11.5 mph - N/A   Mostly Cloudy
1:53 PM 57.9 °F - 37.9 °F 47% 30.00 in 10.0 mi South 10.4 mph - N/A   Mostly Cloudy
2:53 PM 57.0 °F - 39.9 °F 53% 29.98 in 10.0 mi South 9.2 mph - 0.00 in   Overcast
3:53 PM 55.9 °F - 42.1 °F 60% 29.97 in 10.0 mi South 6.9 mph - 0.00 in Rain Light Rain
4:53 PM 52.0 °F - 45.0 °F 77% 29.97 in 10.0 mi South 5.8 mph - 0.02 in Rain Light Rain
5:53 PM 51.8 °F - 44.6 °F 76% 29.93 in 10.0 mi SSE 6.9 mph - N/A Rain Light Rain
6:53 PM 51.1 °F - 46.0 °F 83% 29.95 in 10.0 mi SE 5.8 mph - 0.00 in   Overcast
7:53 PM 52.0 °F - 44.1 °F 74% 29.96 in 10.0 mi SSE 6.9 mph - N/A   Overcast
8:53 PM 52.0 °F - 43.0 °F 71% 29.97 in 10.0 mi SSE 8.1 mph - 0.00 in Rain Light Rain
9:53 PM 51.1 °F - 42.1 °F 71% 29.96 in 10.0 mi South 8.1 mph - 0.00 in   Partly Cloudy
10:53 PM 50.0 °F - 44.1 °F 80% 29.96 in 10.0 mi SSW 5.8 mph - N/A   Overcast
11:53 PM 50.0 °F - 46.0 °F 86% 29.98 in 10.0 mi NW 4.6 mph - 0.00 in   Overcast